www.pogodaiklimat.ru

Погода и климат >> Архив погоды >> Южная Африка >> Клануильям


ПОГОДА в Клануильяме

  • Прогноз погоды в Клануильяме
  • Монитор погоды в Клануильяме

АРХИВ ПОГОДЫ в Клануильяме

Время (UTC), дата Ветер
(напр.,м/с)
 
Видим.   Явления Облачность Т
(С)
Тd
(С)
f
(%)
Тe
(С)
Тes
(С)
Комфортность P
(гПа)
Po
(гПа)
Тmin
(С)
Tmax
(С)
R
(мм)
R24
(мм)
S
(см)
00 14.06 З 1 н/о н/о +5.1 +2.2 82 +4 +4 1030.1 1017.6 +5.1 +17.7
03 14.06 штиль 0 н/о н/о +3.5 +1.7 88 +2 +2 1029.8 1017.2 +3.5 +17.7
06 14.06 СЗ 1 н/о н/о +2.2 +0.7 90 0 0 1030.4 1017.8 +2.2
09 14.06 штиль 0 н/о н/о +11.3 +3.3 58 +11 +11 1029.4 1017.2 +1.9 +11.3
12 14.06 штиль 0 н/о н/о +19.4 +2.0 31 +19 +19 1024.7 1012.9 +1.9 +19.4
15 14.06 Ю 2 н/о н/о +21.3 -2.3 20 +21 +21 комфорт 1022.8 1011.1 +19.5 +21.7
18 14.06 ЮВ 1 н/о н/о +13.8 +1.1 42 +14 +14 1023.7 1011.6 +13.8 +21.7
21 14.06 Ю 2 н/о н/о +10.7 +1.5 53 +10 +10 1023.9 1011.7 +10.7 +21.7
00 15.06 ЮВ 1 н/о н/о +6.1 +2.0 75 +5 +5 1023.4 1011.0 +5.5 +21.7
03 15.06 ЮВ 1 н/о н/о +5.0 +1.6 79 +4 +4 1022.8 1010.4 +5.0 +21.7
06 15.06 СЗ 1 н/о н/о +3.1 +0.3 82 +2 +2 1024.1 1011.6 +3.1
09 15.06 штиль 0 н/о н/о +13.4 +1.1 43 +13 +13 1024.6 1012.5 +2.9 +13.4
12 15.06 штиль 0 н/о н/о +22.2 -3.0 18 +21 +21 комфорт 1021.2 1009.5 +2.9 +22.2
15 15.06 СЗ 1 н/о н/о +22.8 -4.1 16 +21 +21 комфорт 1019.4 1007.8 +22.6 +23.3
18 15.06 Ю 1 н/о н/о +16.4 +0.6 34 +17 +17 1021.5 1009.6 +15.6 +23.3
21 15.06 СЗ 1 н/о н/о +9.0 +0.7 56 +9 +9 1022.2 1010.0 +9.0 +23.3
00 16.06 ЮЗ 1 н/о н/о +6.3 +0.8 68 +5 +5 1022.3 1009.9 +6.3 +23.3
03 16.06 СЗ 1 н/о н/о +3.9 +0.4 78 +3 +3 1021.8 1009.3 +3.9 +23.3
06 16.06 штиль 0 н/о н/о +2.6 -1.1 77 +2 +2 1022.3 1009.8 +2.3
09 16.06 СВ 1 н/о н/о +12.3 +2.5 51 +13 +13 1021.9 1009.8 +2.3 +12.3
12 16.06 ЮВ 1 н/о н/о +22.6 +0.6 23 +22 +22 комфорт 1017.9 1006.3 +2.3 +22.6
15 16.06 ЮЗ 2 н/о н/о +24.8 +1.2 21 +24 +24 комфорт 1016.2 1004.7 +23.1 +25.5
18 16.06 Ю 2 н/о н/о +17.4 +2.6 37 +18 +18 1018.3 1006.5 +17.4 +25.5
21 16.06 штиль 0 н/о н/о +11.6 +2.6 54 +11 +11 1019.9 1007.8 +11.4 +25.5
00 17.06 штиль 0 н/о н/о +8.3 +2.5 67 +8 +8 1020.6 1008.3 +8.3 +25.5
03 17.06 штиль 0 н/о н/о +7.5 +3.1 74 +7 +7 1020.8 1008.5 +7.4 +25.5
06 17.06 штиль 0 н/о н/о +5.4 +2.0 79 +5 +5 1021.7 1009.3 +5.4
09 17.06 В 1 н/о н/о +13.8 +4.1 52 +14 +14 1022.4 1010.4 +5.4 +13.8
12 17.06 штиль 0 н/о н/о +23.3 +2.9 26 +23 +23 комфорт 1020.0 1008.4 +5.4 +23.3
15 17.06 З 2 н/о н/о +25.0 +2.0 22 +24 +24 комфорт 1019.8 1008.2 +23.5 +25.8
18 17.06 Ю 1 н/о н/о +16.9 +3.3 40 +18 +18 1021.9 1010.0 +16.7 +25.8
21 17.06 штиль 0 н/о н/о +10.9 +3.4 60 +11 +11 1023.7 1011.5 +10.9 +25.8
00 18.06 штиль 0 н/о н/о +7.7 +2.9 72 +7 +7 1024.5 1012.2 +7.7 +25.8
03 18.06 штиль 0 н/о н/о +5.8 +2.4 79 +5 +5 1024.3 1011.9 +5.8 +25.8
06 18.06 штиль 0 н/о н/о +4.1 +1.3 82 +3 +3 1024.6 1012.1 +4.1
09 18.06 штиль 0 н/о н/о +15.0 +4.1 48 +15 +15 1024.3 1012.3 +4.0 +15.0
12 18.06 штиль 0 н/о н/о +23.9 +5.5 30 +24 +24 комфорт 1020.6 1009.0 +4.0 +23.9
15 18.06 Ю 1 н/о н/о +26.8 +4.2 23 +26 +26 жарко 1019.1 1007.6 +24.0 +28.3
18 18.06 Ю 3 н/о н/о +19.4 +5.2 39 +20 +20 1021.1 1009.3 +19.4 +28.3
21 18.06 З 2 н/о н/о +13.6 +4.8 55 +14 +14 1022.3 1010.3 +13.6 +28.3
00 19.06 СЗ 1 н/о н/о +10.5 +5.3 70 +10 +10 1022.7 1010.5 +10.5 +28.3
03 19.06 штиль 0 н/о н/о +8.1 +4.3 77 +7 +7 1022.5 1010.2 +8.1 +28.3
06 19.06 З 1 н/о н/о +7.3 +4.2 81 +6 +6 1023.7 1011.4 +7.3
09 19.06 штиль 0 н/о н/о +14.2 +7.3 63 +14 +14 1024.2 1012.2 +7.2 +14.2
12 19.06 С 2 н/о н/о +27.3 +3.3 21 +26 +26 жарко 1021.1 1009.6 +7.2 +27.3
15 19.06 СЗ 2 н/о н/о +27.0 +3.7 22 +26 +26 жарко 1020.1 1008.6 +27.0 +29.1
18 19.06 штиль 0 н/о н/о +18.0 +3.6 38 +18 +18 1021.9 1010.0 +18.0 +29.1
21 19.06 В 1 н/о н/о +13.3 +4.7 56 +14 +14 1023.5 1011.4 +13.3 +29.1
00 20.06 З 1 н/о н/о +9.7 +4.1 68 +9 +9 1024.2 1012.0 +9.7 +29.1
03 20.06 штиль 0 н/о н/о +7.8 +3.6 75 +7 +7 1023.7 1011.4 +7.8 +29.1
06 20.06 штиль 0 н/о н/о +6.3 +2.9 79 +5 +5 1023.8 1011.4 +6.3
09 20.06 В 1 н/о н/о +15.4 +6.4 55 +16 +16 1023.3 1011.3 +5.9 +15.4
12 20.06 С 3 н/о н/о +29.1 +0.1 15 +26 +26 жарко 1019.0 1007.6 +5.9 +29.1
15 20.06 С 2 н/о н/о +28.2 -2.5 13 +25 +25 комфорт 1017.2 1005.8 +28.2 +29.6
18 20.06 З 1 н/о н/о +19.2 -0.0 27 +20 +20 1017.7 1005.9 +19.2 +29.6

 

Местоположение метеостанции Клануильям (Южная Африка): широта -32.18 долгота 18.89 высота над уровнем моря 100 м.

В архиве по умолчанию представлена погода в Клануильяме за последнюю неделю. Архивные данные за месяц целиком и за предыдущие месяцы, начиная с января 2011 года, Вы можете получить, выбрав интересующий диапазон дат из раскрывающегося списка и нажав кнопку "Ввод!".


*Определитесь, кто Вы:
робот инопланетянин человек

Внимание! Время в таблицах - всемирное. Для получения местного времени необходимо прибавить поправку, которая равна 2 ч.

Смотрите также архив погоды в соседних городах и на ближайших метеорологических станциях:

Погода в Ламбертс-Бей (Южная Африка) (55 км)
Погода в Фридендале (Южная Африка) (69 км)
Погода в Ниеувоудтвилле (Южная Африка) (95 км)
Погода на Станции Excelsior Ceres (Южная Африка) (100 км)
Погода в Лангебаанвеге (Южная Африка) (110 км)
Погода в Кальвинии (Южная Африка) (115 км)
Погода на Мысе Колумбайн (Южная Африка) (121 км)
Погода в Лангебане (Южная Африка) (129 км)
Погода в Гилбеке (Южная Африка) (134 км)
Погода в Малмсбери (Южная Африка) (143 км)

Пояснения к столбцам:

Ветер - указаны скорость ветра в м/с - средняя за 10 мин, порывы в срок и между сроками (в фигурных скобках) и направление, откуда дует ветер: С - северный, СВ - северо-восточный, В - восточный, ЮВ - юго-восточный, Ю - южный, ЮЗ - юго-западный, З - западный, СЗ - северо-западный.
Видимость - горизонтальная дальность видимости в метрах или километрах. При видимости от 1 до 10 км при отсутствии осадков обычно наблюдается дымка, при ухудшении видимости до 1 км и менее - туман. В сухую погоду видимость может ухудшаться дымом, пылью или мглою.
Явления - указаны атмосферные явления, наблюдавшиеся в срок или в последний час перед сроком; фигурными скобками обозначены явления, наблюдавшиеся между сроками (за 1-3 часа до срока); квадратными скобками обозначены град или гололедные отложения с указанием их диаметра в мм.
Облачность - указаны через наклонную черту общая и нижняя облачность в баллах и высота нижней границы облаков в метрах; квадратными скобками обозначены формы облаков: Ci - перистые, Cs - перисто-слоистые, Cc - перисто-кучевые, Ac - высококучевые, As - высокослоистые, Sc - слоисто-кучевые, Ns - слоисто-дождевые, Cu - кучевые, Cb - кучево-дождевые. Подробнее классификацию облаков см. в Атласе облаков (PDF).
T - Температура воздуха - температура, измеренная на высоте 2 м над землей.
Td - Температура точки росы - температура, при понижении до которой содержащийся в воздухе водяной пар достигнет насыщения.
f - Относительная влажность воздуха - влажноcть воздуха, измеренная на высоте 2 м над землей.
Te - Эффективная температура - температура, которую ощущает одетый по сезону человек в тени. Характеристика душности погоды. При расчете учитывается влияние влажности воздуха и скорости ветра на теплоощущения человека.
Tes - Эффективная температура на солнце - температура, которую ощущает человек, с поправкой на солнечный нагрев. Характеристика знойности погоды. Зависит от высоты солнца над горизонтом, облачности и скорости ветра. Ночью, в пасмурную погоду, а также при ветре 12 м/с и более поправка равна нулю.
P - Атмосферное давление - приведенное к уровню моря атмосферное давление.
Po - Атмосферное давление - измеренное на уровне метеостанции атмосферное давление.
Tmin - Минимальная температура - минимум температуры воздуха на высоте 2 м над землей.
Tmax - Максимальная температура - максимум температуры воздуха на высоте 2 м над землей.
R - Количество осадков - Количество выпавших осадков за период времени, мм. При наведении курсора мыши на число - период времени, за который выпало указанное количество осадков.
R24 - Количество осадков - Количество выпавших осадков за 24 часа, мм.
S - Снежный покров - Высота снежного покрова, см. При наведении курсора мыши на число - состояние снежного покрова и степень покрытия местности в баллах.